Leadville, CO

2:26 AM MST on November 12, 2019 (GMT -0700)
Lake County

Weather History for KLXV - September, 2019

Change the Weather History Date:

Monday, September 9, 2019

  Actual Average Record
Temperature  
Mean Temperature 49 °F -  
Max Temperature 65 °F 63 °F 72 °F (1988)
Min Temperature 32 °F 33 °F 21 °F (2001)
Degree Days  
Heating Degree Days 16 17  
Month to date heating degree days 90 145  
Since 1 July heating degree days 683 867  
Cooling Degree Days 0 0  
Month to date cooling degree days 0 0  
Year to date cooling degree days 0 0  
Moisture  
Dew Point 31 °F    
Average Humidity 58    
Maximum Humidity 92    
Minimum Humidity 24    
Precipitation  
Precipitation T in 0.04 in 0.31 in (2002)
Month to date precipitation 0.31 0.40  
Year to date precipitation 12.85 9.35  
Sea Level Pressure  
Sea Level Pressure 29.83 in    
Wind  
Wind Speed 7 mph (North)    
Max Wind Speed 18 mph    
Max Gust Speed 27 mph    
Visibility 10 miles    
Events      
T = Trace of Precipitation, MM = Missing Value Source: NWS Daily Summary

Daily Weather History Graph

Daily Weather History Graph

Search for Another Location

Airport or City:

Astronomy

Sep. 09, 2019 Rise Set
Actual Time 6:40 AM MDT 7:23 PM MDT
Civil Twilight 6:13 AM MDT 7:50 PM MDT
Nautical Twilight 5:41 AM MDT 8:22 PM MDT
Astronomical Twilight 5:08 AM MDT 8:55 PM MDT
Moon 5:19 PM MDT (9/9) 2:16 AM MDT (9/9)
Length of Visible Light 13h 36m
Length of Day
12h 42m
Waxing Gibbous, 83% of the Moon is Illuminated
Sep 9
Waxing Gibbous
Sep 13
Full
Sep 21
Last Quarter
Sep 28
New
Oct 5
First Quarter

Hourly Weather History & Observations

Time (MDT) Temp. Windchill Dew Point Humidity Pressure Visibility Wind Dir Wind Speed Gust Speed Precip Events Conditions
12:53 AM 42.1 °F 40.2 °F 39.0 °F 89% 29.74 in 10.0 mi North 3.5 mph - N/A   Mostly Cloudy
1:53 AM 39.9 °F 37.8 °F 37.9 °F 93% 29.75 in 10.0 mi NNE 3.5 mph - N/A   Partly Cloudy
2:53 AM 37.9 °F 34.4 °F 36.0 °F 93% 29.79 in 10.0 mi East 4.6 mph - N/A   Partly Cloudy
3:53 AM 39.0 °F 34.8 °F 35.1 °F 86% 29.85 in 10.0 mi East 5.8 mph - N/A   Scattered Clouds
4:53 AM 35.1 °F 30.1 °F 32.0 °F 89% 29.86 in 10.0 mi East 5.8 mph - N/A   Clear
5:53 AM 35.1 °F 31.0 °F 30.9 °F 85% 29.86 in 10.0 mi Variable 4.6 mph - N/A   Clear
6:53 AM 34.0 °F 29.8 °F 30.0 °F 85% 29.88 in 10.0 mi East 4.6 mph - N/A   Clear
7:53 AM 39.9 °F - 35.1 °F 83% 29.88 in 10.0 mi Calm Calm - N/A   Clear
8:53 AM 48.0 °F - 39.0 °F 71% 29.85 in 10.0 mi Calm Calm - N/A   Clear
9:53 AM 54.0 °F - 30.9 °F 41% 29.81 in 10.0 mi West 5.8 mph - N/A   Clear
10:53 AM 57.0 °F - 28.0 °F 33% 29.80 in 8.0 mi WNW 17.3 mph 23.0 mph N/A   Clear
11:53 AM 59.0 °F - 30.0 °F 33% 29.82 in 10.0 mi North - - N/A   Clear
12:53 PM 61.0 °F - 28.9 °F 30% 29.80 in 10.0 mi NW 9.2 mph 21.9 mph N/A   Clear
1:53 PM 62.1 °F - 28.0 °F 28% 29.80 in 9.0 mi NW 13.8 mph 24.2 mph 0.00 in   Clear
2:53 PM 64.0 °F - 27.0 °F 25% 29.80 in 10.0 mi NNW 12.7 mph 23.0 mph N/A   Clear
3:53 PM 64.9 °F - 26.1 °F 23% 29.77 in 10.0 mi North 12.7 mph 21.9 mph N/A   Clear
4:53 PM 64.9 °F - 26.1 °F 23% 29.80 in 10.0 mi NW 11.5 mph 19.6 mph N/A   Clear
5:53 PM 64.0 °F - 27.0 °F 25% 29.80 in 10.0 mi NNW 11.5 mph 18.4 mph N/A   Partly Cloudy
6:53 PM 60.1 °F - 27.0 °F 28% 29.86 in 10.0 mi NNW 6.9 mph - N/A   Clear
7:53 PM 51.1 °F - 30.0 °F 44% 29.89 in 10.0 mi NNE 4.6 mph - N/A   Clear
8:53 PM 45.0 °F 43.5 °F 30.0 °F 56% 29.90 in 10.0 mi North 3.5 mph - N/A   Clear
9:53 PM 44.1 °F 40.1 °F 30.0 °F 58% 29.87 in 10.0 mi NE 6.9 mph - N/A   Clear
10:53 PM 39.9 °F 36.7 °F 28.9 °F 65% 29.88 in 10.0 mi NE 4.6 mph - N/A   Clear
11:53 PM 35.1 °F - 28.0 °F 76% 29.90 in 10.0 mi Calm Calm - N/A   Clear